Weather History for KMFE - October, 2012

Change the Weather History Date:

Tuesday, October 2, 2012

  Actual Average Record
Temperature  
Mean Temperature 80 °F 80 °F  
Max Temperature 93 °F 90 °F 99 °F (2009)
Min Temperature 66 °F 70 °F 52 °F (1958)
Degree Days  
Heating Degree Days 0 0  
Month to date heating degree days 0 0  
Since 1 July heating degree days 0 0  
Cooling Degree Days 15 15  
Month to date cooling degree days 30 30  
Year to date cooling degree days 4449 3829  
Growing Degree Days 28 (Base 50)    
Moisture  
Dew Point 55 °F    
Average Humidity 53    
Maximum Humidity 87    
Minimum Humidity 18    
Precipitation  
Precipitation 0.00 in 0.09 in 0.67 in (1945)
Month to date precipitation T 0.19  
Year to date precipitation 15.24 18.23  
Sea Level Pressure  
Sea Level Pressure 29.94 in    
Wind  
Wind Speed 7 mph (NNW)    
Max Wind Speed 21 mph    
Max Gust Speed 26 mph    
Visibility 10 miles    
Events      
T = Trace of Precipitation, MM = Missing Value Source: NWS Daily Summary

Daily Weather History Graph

Daily Weather History Graph

Search for Another Location

Airport or City:

Trip Planner

Search our weather history database for the weather conditions in past years. The results will help you decide how hot, cold, wet, or windy it might be!

Date:

Astronomy

Oct. 02, 2012 Rise Set
Actual Time 7:26 AM CDT 7:17 PM CDT
Civil Twilight 7:02 AM CDT 7:40 PM CDT
Nautical Twilight 6:36 AM CDT 8:07 PM CDT
Astronomical Twilight 6:09 AM CDT 8:34 PM CDT
Moon 8:51 PM CDT (10/2) 9:35 AM CDT (10/2)
Length of Visible Light 12h 37m
Length of Day
11h 51m
Waning Gibbous, 94% of the Moon is Illuminated
Oct 2
Waning Gibbous
Oct 8
Last Quarter
Oct 15
New
Oct 21
First Quarter
Oct 29
Full

Hourly Weather History & Observations

Time (CDT) Temp. Heat Index Dew Point Humidity Pressure Visibility Wind Dir Wind Speed Gust Speed Precip Events Conditions
12:53 AM 71.1 °F - 61.0 °F 70% 29.91 in 10.0 mi Calm Calm - N/A   Clear
1:53 AM 70.0 °F - 61.0 °F 73% 29.92 in 10.0 mi Calm Calm - N/A   Clear
2:53 AM 70.0 °F - 62.1 °F 76% 29.92 in 10.0 mi Calm Calm - N/A   Partly Cloudy
3:53 AM 68.0 °F - 62.1 °F 81% 29.91 in 10.0 mi Calm Calm - N/A   Partly Cloudy
4:53 AM 66.9 °F - 63.0 °F 87% 29.92 in 10.0 mi WNW 3.5 mph - N/A   Clear
5:53 AM 68.0 °F - 63.0 °F 84% 29.93 in 10.0 mi NNW 3.5 mph - N/A   Partly Cloudy
6:53 AM 66.0 °F - 62.1 °F 87% 29.94 in 10.0 mi NNW 4.6 mph - N/A   Clear
7:53 AM 66.9 °F - 62.1 °F 84% 29.95 in 10.0 mi West 3.5 mph - N/A   Clear
8:53 AM 72.0 °F - 63.0 °F 73% 29.96 in 10.0 mi WNW 3.5 mph - N/A   Clear
9:53 AM 79.0 °F - 63.0 °F 58% 29.99 in 10.0 mi WNW 5.8 mph - N/A   Clear
10:53 AM 82.9 °F 82.8 °F 59.0 °F 44% 29.99 in 10.0 mi NW 8.1 mph - N/A   Clear
11:53 AM 88.0 °F 86.7 °F 57.0 °F 35% 29.98 in 10.0 mi NNW 9.2 mph - N/A   Clear
12:53 PM 88.0 °F 86.1 °F 55.0 °F 32% 29.96 in 10.0 mi WNW 6.9 mph - N/A   Scattered Clouds
2:53 PM 91.9 °F - 51.1 °F 25% 29.89 in 10.0 mi NNW 13.8 mph - N/A   Scattered Clouds
3:53 PM 91.9 °F - 46.9 °F 21% 29.88 in 10.0 mi NW 15.0 mph 23.0 mph N/A   Partly Cloudy
4:53 PM 91.0 °F - 46.9 °F 22% 29.88 in 10.0 mi North 15.0 mph 21.9 mph N/A   Clear
5:53 PM 90.0 °F - 43.0 °F 19% 29.89 in 10.0 mi NNE 11.5 mph 25.3 mph N/A   Clear
6:53 PM 87.8 °F - 39.2 °F 18% 29.91 in 10.0 mi North 13.8 mph 20.7 mph N/A   Clear
7:53 PM 84.0 °F - 43.0 °F 24% 29.92 in 10.0 mi NNE 9.2 mph - N/A   Clear
8:53 PM 80.6 °F - 44.6 °F 28% 29.95 in 10.0 mi NNE 5.8 mph - N/A   Clear
9:53 PM 79.0 °F - 45.0 °F 30% 29.96 in 10.0 mi ENE 6.9 mph - N/A   Clear
10:53 PM 75.0 °F - 55.9 °F 51% 29.98 in 10.0 mi ESE 5.8 mph - N/A   Clear
11:53 PM 71.1 °F - 59.0 °F 66% 29.99 in 10.0 mi ESE 4.6 mph - N/A   Clear